Location: Casteau
(50.5142°N, 4.0161°E)
Time: 08:58:35
(UTC+00:00)

Cosmos 1782 Rocket - Pass Details

Date: 18 September 2020
Orbit: 607 x 632 km, 82.5° (Epoch: 24 October)

Event Time Altitude Azimuth Distance (km) Brightness Sun altitude
Rises 18:42:57 0° 186° (S) 2,884 6.9 -9.1°
Reaches altitude 10° 18:45:09 10° 186° (S) 1,987 6.1 -9.5°
Maximum altitude 18:49:34 84° 101° (E) 636 3.5 -10.1°
Drops below altitude 10° 18:54:03 10° 11° (NNE) 2,018 6.3 -10.8°
Sets 18:56:18 0° 11° (NNE) 2,934 7.1 -11.2°
